www.pogodaiklimat.ru

Погода и климат >> Архив погоды >> Россия >> Якутия >> Батагай


ПОГОДА в Батагае

  • Прогноз погоды в Батагае
  • Монитор погоды в Батагае

АРХИВ ПОГОДЫ в Батагае

Время (UTC), дата Ветер
(напр.,м/с)
 
Видим.   Явления Облачность Т
(С)
Тd
(С)
f
(%)
Тe
(С)
Тes
(С)
Комфортность P
(гПа)
Po
(гПа)
Тmin
(С)
Tmax
(С)
R
(мм)
R24
(мм)
S
(см)
21 19.03 штиль 0 50 км ясно -32.9 -35.8 75 -33 -33 опасность
обморожения
1025.2 994.5 -33.1 17
00 20.03 штиль 0 50 км ясно -27.4 -31.2 70 -27 -25 1025.0 995.0
03 20.03 ЮВ 1 50 км ясно -20.2 -26.9 55 -23 -19 1023.9 994.8
06 20.03 ЮВ 2 50 км ясно -18.2 -26.1 50 -24 -22 1023.3 994.4
09 20.03 В 2 50 км ясно -19.8 -27.6 50 -26 -26 1023.7 994.6 -17.8
12 20.03 ЮВ 2 50 км ясно -22.1 -28.8 54 -28 -28 1024.5 995.1
15 20.03 ЮВ 3 50 км ясно -23.7 -29.4 59 -32 -32 опасность
обморожения
1024.7 995.1
18 20.03 ЮВ 2 50 км ясно -26.7 -30.6 69 -34 -34 опасность
обморожения
1025.1 995.1
21 20.03 штиль 0 50 км ясно -31.6 -34.5 75 -32 -32 опасность
обморожения
1025.7 995.1 -32.2 17
00 21.03 штиль 0 50 км ясно -25.1 -29.8 65 -25 -23 1025.0 995.3
03 21.03 ЮВ 1 50 км ясно -18.7 -25.5 55 -22 -17 1023.4 994.4
06 21.03 ЮВ 2 50 км ясно -16.7 -25.9 45 -22 -20 1022.3 993.5
09 21.03 В 2 50 км ясно -18.4 -26.3 50 -24 -24 1021.9 993.0 -15.7
12 21.03 ЮВ 2 50 км ясно -20.8 -27.5 55 -27 -27 1022.5 993.2
15 21.03 ЮВ 3 50 км ясно -22.9 -28.6 60 -31 -31 опасность
обморожения
1022.0 992.5
18 21.03 В 2 50 км ясно -26.2 -30.1 70 -33 -33 опасность
обморожения
1021.7 992.0
21 21.03 В 3 50 км ясно -24.6 -29.4 64 -33 -33 опасность
обморожения
1020.7 991.1 -27.4 17
00 22.03 ЮВ 3 50 км ясно -22.8 -28.5 60 -31 -29 опасность
обморожения
1019.5 990.2
03 22.03 ЮВ 3 50 км ясно -16.8 -24.8 50 -24 -21 1017.2 988.5
06 22.03 В 3 50 км ясно -15.6 -23.7 50 -22 -21 1014.4 986.0
09 22.03 В 3 50 км 1/0
[Ci fib]
-16.0 -25.2 45 -23 -23 1012.5 984.1 -15.5
12 22.03 В 3 50 км 1/0
[Ci fib]
-17.0 -25.0 50 -24 -24 1010.6 982.2
15 22.03 В 3 50 км ясно -18.8 -26.7 50 -26 -26 1008.9 980.4
18 22.03 В 3 50 км ясно -19.2 -26.0 55 -27 -27 1007.3 978.7
21 22.03 В 3 50 км 6/0
[Ci fib]
-19.9 -26.6 55 -27 -27 1006.8 978.1 -19.9 17
00 23.03 В 3 50 км 10/0
[Ci fib]
-16.6 -24.6 50 -24 -22 1005.9 977.5
03 23.03 В 3 50 км 10/0
[Ci fib]
-13.0 -22.5 45 -19 -17 1004.6 976.8
06 23.03 В 3 50 км 10/0
[Ci fib]
-10.8 -21.8 40 -17 -15 1003.7 976.1
09 23.03 В 2 50 км 10/0
[Ci fib]
-12.3 -23.2 40 -17 -17 1004.6 976.9 -10.5
12 23.03 ЮВ 3 50 км 3/0
[Ci fib]
-16.8 -26.0 45 -24 -24 1005.8 977.5
15 23.03 В 2 50 км ясно -21.1 -25.9 65 -27 -27 1007.3 978.5
18 23.03 С 2 50 км ясно -22.0 -26.1 69 -28 -28 1008.1 979.2
21 23.03 С 3 50 км ясно -24.8 -28.7 70 -33 -33 опасность
обморожения
1009.7 980.4 -25.1 17
00 24.03 С 2 50 км ясно -22.0 -26.9 64 -28 -26 1010.4 981.5
03 24.03 С 1 50 км ясно -16.1 -23.1 55 -19 -14 1010.4 982.1
06 24.03 штиль 0 50 км ясно -11.5 -21.1 45 -12 -9 1010.6 982.8
09 24.03 штиль 0 50 км ясно -12.5 -22.0 45 -13 -12 1011.6 983.6 -9.9
12 24.03 В 1 50 км ясно -19.6 -26.4 55 -23 -23 1014.2 985.4
15 24.03 штиль 0 50 км ясно -20.5 -25.4 65 -21 -21 1015.1 986.3
18 24.03 СВ 2 50 км ясно -23.0 -26.3 74 -29 -29 1016.4 987.2
21 24.03 СЗ 1 50 км ясно -25.9 -29.1 74 -30 -30 1017.9 988.2 -26.1 17
00 25.03 С 1 50 км ясно -24.0 -27.2 75 -27 -25 1018.5 989.0
03 25.03 С 1 50 км ясно -18.8 -23.7 65 -22 -17 1018.1 989.2
06 25.03 С 1 50 км ясно -14.6 -21.7 55 -17 -14 1017.7 989.3
09 25.03 С 1 50 км ясно -14.6 -22.7 50 -17 -17 1018.0 989.6 -13.1
12 25.03 штиль 0 50 км ясно -20.7 -26.4 60 -21 -21 1019.6 990.5
15 25.03 В 2 50 км ясно -24.6 -28.6 69 -31 -31 опасность
обморожения
1020.4 990.8
18 25.03 штиль 0 50 км ясно -27.4 -30.5 75 -27 -27 1020.7 990.9
21 25.03 В 1 50 км ясно -29.4 -32.4 75 -33 -33 опасность
обморожения
1021.6 991.5 -30.2 17
00 26.03 штиль 0 50 км ясно -23.4 -27.4 70 -23 -20 1021.1 991.8
03 26.03 Ю 1 50 км ясно -18.3 -24.2 60 -21 -16 1020.1 991.3
06 26.03 СЗ 1 50 км ясно -14.8 -21.8 55 -17 -15 1018.9 990.5
09 26.03 З 1 50 км ясно -14.2 -22.4 50 -17 -17 1018.6 990.3 -12.3
12 26.03 С 3 50 км ясно -19.1 -24.9 60 -27 -27 1019.6 990.7
15 26.03 ЮВ 2 50 км ясно -23.6 -26.9 74 -30 -30 1020.2 990.7
18 26.03 штиль 0 50 км ясно -25.7 -28.1 80 -26 -26 1020.4 990.7

 

Местоположение метеостанции Батагай (Якутия, Россия): широта 67.65 долгота 134.60 высота над уровнем моря 214 м.

В архиве по умолчанию представлена погода в Батагае за последнюю неделю. Архивные данные за месяц целиком и за предыдущие месяцы, начиная с января 2011 года, Вы можете получить, выбрав интересующий диапазон дат из раскрывающегося списка и нажав кнопку "Ввод!".


*Определитесь, кто Вы:
робот инопланетянин человек

Внимание! Время в таблицах - всемирное. Для получения местного времени необходимо прибавить поправку, которая равна 10 ч.

Смотрите также архив погоды в соседних городах и на ближайших метеорологических станциях:

Погода в Верхоянске (Якутия, Россия) (52 км)
Погода в Усть-Чарках (Якутия, Россия) (128 км)
Погода в Екюччю (Якутия, Россия) (162 км)
Погода в Батагай-Алыте (Якутия, Россия) (178 км)
Погода в Усть-Куйге (Якутия, Россия) (264 км)
Погода в Иэме (Якутия, Россия) (267 км)
Погода в Депутатском (Якутия, Россия) (286 км)
Погода в Себян-Кюеле (Якутия, Россия) (332 км)
Погода в Юбилейной (Якутия, Россия) (353 км)
Погода в Усть-Моме (Якутия, Россия) (396 км)

Пояснения к столбцам:

Ветер - указаны скорость ветра в м/с - средняя за 10 мин, порывы в срок и между сроками (в фигурных скобках) и направление, откуда дует ветер: С - северный, СВ - северо-восточный, В - восточный, ЮВ - юго-восточный, Ю - южный, ЮЗ - юго-западный, З - западный, СЗ - северо-западный.
Видимость - горизонтальная дальность видимости в метрах или километрах. При видимости от 1 до 10 км при отсутствии осадков обычно наблюдается дымка, при ухудшении видимости до 1 км и менее - туман. В сухую погоду видимость может ухудшаться дымом, пылью или мглою.
Явления - указаны атмосферные явления, наблюдавшиеся в срок или в последний час перед сроком; фигурными скобками обозначены явления, наблюдавшиеся между сроками (за 1-3 часа до срока); квадратными скобками обозначены град или гололедные отложения с указанием их диаметра в мм.
Облачность - указаны через наклонную черту общая и нижняя облачность в баллах и высота нижней границы облаков в метрах; квадратными скобками обозначены формы облаков: Ci - перистые, Cs - перисто-слоистые, Cc - перисто-кучевые, Ac - высококучевые, As - высокослоистые, Sc - слоисто-кучевые, Ns - слоисто-дождевые, Cu - кучевые, Cb - кучево-дождевые. Подробнее классификацию облаков см. в Атласе облаков (PDF).
T - Температура воздуха - температура, измеренная на высоте 2 м над землей.
Td - Температура точки росы - температура, при понижении до которой содержащийся в воздухе водяной пар достигнет насыщения.
f - Относительная влажность воздуха - влажноcть воздуха, измеренная на высоте 2 м над землей.
Te - Эффективная температура - температура, которую ощущает одетый по сезону человек в тени. Характеристика душности погоды. При расчете учитывается влияние влажности воздуха и скорости ветра на теплоощущения человека.
Tes - Эффективная температура на солнце - температура, которую ощущает человек, с поправкой на солнечный нагрев. Характеристика знойности погоды. Зависит от высоты солнца над горизонтом, облачности и скорости ветра. Ночью, в пасмурную погоду, а также при ветре 12 м/с и более поправка равна нулю.
P - Атмосферное давление - приведенное к уровню моря атмосферное давление.
Po - Атмосферное давление - измеренное на уровне метеостанции атмосферное давление.
Tmin - Минимальная температура - минимум температуры воздуха на высоте 2 м над землей.
Tmax - Максимальная температура - максимум температуры воздуха на высоте 2 м над землей.
R - Количество осадков - Количество выпавших осадков за период времени, мм. При наведении курсора мыши на число - период времени, за который выпало указанное количество осадков.
R24 - Количество осадков - Количество выпавших осадков за 24 часа, мм.
S - Снежный покров - Высота снежного покрова, см. При наведении курсора мыши на число - состояние снежного покрова и степень покрытия местности в баллах.